{"data":{"norad_id":62415,"epoch":"2026-05-25T01:22:35.827968Z","epoch_age_seconds":66164,"freshness":"FRESH","line1":"1 62415U 24249G   26145.05735912  .00170895  00000+0  13077-2 0  9998","line2":"2 62415  42.9994  67.1136 0002166 250.0069 110.0566 15.70846554 81494","mean_motion":15.70846554,"eccentricity":0.0002166,"inclination_deg":42.9994,"raan_deg":67.1136,"arg_perigee_deg":250.0069,"mean_anomaly_deg":110.0566,"bstar":0.0013077,"rev_number":8149,"period_min":91.670316004653,"perigee_km":355.01761182802,"apogee_km":357.93504632217,"semimajor_km":6734.6133290751,"source":"CELESTRAK","updated_at":"2026-05-25T13:38:19.653292Z"}}